Starlink 3533

operational
NORAD ID: 51715 Int'l Des: 2022-016 Owner: SPXS Country: US Constellation: starlink
LEOCIRCULAR

Starlink 3533について

説明を読み込み中...

リアルタイム位置

3D地球を読み込み中...

次回通過

高度履歴

Altitude vs Time

uPlot chart will show altitude changes over time

軌道要素

1 51715U 22016B 25304.83363102 -.00000844 00000-0 -34952-4 0 9995
2 51715 53.2153 187.5873 0001382 92.1874 267.9276 15.08830358205102
Epoch: Oct 31, 2025 • Age: 7 hours

現在のステータス

高度 545.8 km
速度 7.59 km/s
衛星直下点 -20.22°S, 67.63°W
打ち上げ日 Feb 21, 2022
運用期間 3.6 years
タイプ internet

技術仕様

分類 Payload
質量 297.00 kg
乾燥質量 275.00 kg
総質量 297.00 kg
長さ 0.20 m
直径 2.80 m
スパン 9.00 m
形状 Box + pan
製造者 SPXS
バスタイプ Starlink
フェーズステータス In Orbit
所有者/国 SPXS/US

大規模コンステレーション

Loading constellations...